# Tabular Observed and Forecast Hydrograph Information
#
# Location: Lamoille Creek - Lamoille (LCLN2)
#
# File Generation Time: 05/07/2026 at 07:41 AM PDT
# Data Interval: 1 Hour
#
# Most Recent Date & Time of Maximum Observed: 05/07/2026 at 04:00 AM PDT
# Maximum Observed Stage: 2.72 Feet
# Maximum Observed Flow: 52 cfs
#
# Earliest Date & Time of Maximum Forecast: 05/12/2026 at 01:00 AM PDT
# Maximum Forecast Stage: 2.98 Feet
# Maximum Forecast Flow: 78 cfs
#
# OBSERVED
#
# Date & Time (Local) Stage (Feet) Flow (cfs) Trend Observed Status
# ---------------------------------------------------------------------------------
05/02/2026 07 AM PDT 2.56 39 Normal
05/02/2026 08 AM PDT 2.56 39 0 Normal
05/02/2026 09 AM PDT 2.55 39 - Normal
05/02/2026 10 AM PDT 2.56 39 + Normal
05/02/2026 11 AM PDT 2.56 39 0 Normal
05/02/2026 12 PM PDT 2.55 39 - Normal
05/02/2026 01 PM PDT 2.55 39 0 Normal
05/02/2026 02 PM PDT 2.55 39 0 Normal
05/02/2026 03 PM PDT 2.54 38 - Normal
05/02/2026 04 PM PDT 2.55 39 + Normal
05/02/2026 05 PM PDT 2.55 39 0 Normal
05/02/2026 06 PM PDT 2.56 39 + Normal
05/02/2026 07 PM PDT 2.55 39 - Normal
05/02/2026 08 PM PDT 2.55 39 0 Normal
05/02/2026 09 PM PDT 2.57 40 + Normal
05/02/2026 10 PM PDT 2.57 40 0 Normal
05/02/2026 11 PM PDT 2.57 40 0 Normal
05/03/2026 12 AM PDT 2.58 41 + Normal
05/03/2026 01 AM PDT 2.58 41 0 Normal
05/03/2026 02 AM PDT 2.58 41 0 Normal
05/03/2026 03 AM PDT 2.57 40 - Normal
05/03/2026 04 AM PDT 2.58 41 + Normal
05/03/2026 05 AM PDT 2.58 41 0 Normal
05/03/2026 06 AM PDT 2.58 41 0 Normal
05/03/2026 07 AM PDT 2.57 40 - Normal
05/03/2026 08 AM PDT 2.58 41 + Normal
05/03/2026 09 AM PDT 2.57 40 - Normal
05/03/2026 10 AM PDT 2.57 40 0 Normal
05/03/2026 11 AM PDT 2.58 41 + Normal
05/03/2026 12 PM PDT 2.57 40 - Normal
05/03/2026 01 PM PDT 2.56 39 - Normal
05/03/2026 02 PM PDT 2.57 40 + Normal
05/03/2026 03 PM PDT 2.57 40 0 Normal
05/03/2026 04 PM PDT 2.56 39 - Normal
05/03/2026 05 PM PDT 2.57 40 + Normal
05/03/2026 06 PM PDT 2.56 39 - Normal
05/03/2026 07 PM PDT 2.57 40 + Normal
05/03/2026 08 PM PDT 2.57 40 0 Normal
05/03/2026 09 PM PDT 2.57 40 0 Normal
05/03/2026 10 PM PDT 2.58 41 + Normal
05/03/2026 11 PM PDT 2.58 41 0 Normal
05/04/2026 12 AM PDT 2.59 42 + Normal
05/04/2026 01 AM PDT 2.59 42 0 Normal
05/04/2026 02 AM PDT 2.59 42 0 Normal
05/04/2026 03 AM PDT 2.58 41 - Normal
05/04/2026 04 AM PDT 2.58 41 0 Normal
05/04/2026 05 AM PDT 2.59 42 + Normal
05/04/2026 06 AM PDT 2.59 42 0 Normal
05/04/2026 07 AM PDT 2.59 42 0 Normal
05/04/2026 08 AM PDT 2.58 41 - Normal
05/04/2026 09 AM PDT 2.59 42 + Normal
05/04/2026 10 AM PDT 2.58 41 - Normal
05/04/2026 11 AM PDT 2.59 42 + Normal
05/04/2026 12 PM PDT 2.58 41 - Normal
05/04/2026 01 PM PDT 2.58 41 0 Normal
05/04/2026 02 PM PDT 2.58 41 0 Normal
05/04/2026 03 PM PDT 2.58 41 0 Normal
05/04/2026 04 PM PDT 2.58 41 0 Normal
05/04/2026 05 PM PDT 2.58 41 0 Normal
05/04/2026 06 PM PDT 2.60 42 + Normal
05/04/2026 07 PM PDT 2.61 43 + Normal
05/04/2026 08 PM PDT 2.62 44 + Normal
05/04/2026 09 PM PDT 2.64 46 + Normal
05/04/2026 10 PM PDT 2.64 46 0 Normal
05/04/2026 11 PM PDT 2.64 46 0 Normal
05/05/2026 12 AM PDT 2.65 46 + Normal
05/05/2026 01 AM PDT 2.65 46 0 Normal
05/05/2026 02 AM PDT 2.64 46 - Normal
05/05/2026 03 AM PDT 2.65 46 + Normal
05/05/2026 04 AM PDT 2.65 46 0 Normal
05/05/2026 05 AM PDT 2.65 46 0 Normal
05/05/2026 06 AM PDT 2.65 46 0 Normal
05/05/2026 07 AM PDT 2.64 46 - Normal
05/05/2026 08 AM PDT 2.64 46 0 Normal
05/05/2026 09 AM PDT 2.63 45 - Normal
05/05/2026 10 AM PDT 2.64 46 + Normal
05/05/2026 11 AM PDT 2.64 46 0 Normal
05/05/2026 12 PM PDT 2.64 46 0 Normal
05/05/2026 01 PM PDT 2.63 45 - Normal
05/05/2026 02 PM PDT 2.63 45 0 Normal
05/05/2026 03 PM PDT 2.64 46 + Normal
05/05/2026 04 PM PDT 2.64 46 0 Normal
05/05/2026 05 PM PDT 2.66 47 + Normal
05/05/2026 06 PM PDT 2.67 48 + Normal
05/05/2026 07 PM PDT 2.66 47 - Normal
05/05/2026 08 PM PDT 2.67 48 + Normal
05/05/2026 09 PM PDT 2.68 49 + Normal
05/05/2026 10 PM PDT 2.68 49 0 Normal
05/05/2026 11 PM PDT 2.68 49 0 Normal
05/06/2026 12 AM PDT 2.66 47 - Normal
05/06/2026 01 AM PDT 2.66 47 0 Normal
05/06/2026 02 AM PDT 2.66 47 0 Normal
05/06/2026 03 AM PDT 2.66 47 0 Normal
05/06/2026 04 AM PDT 2.65 46 - Normal
05/06/2026 05 AM PDT 2.65 46 0 Normal
05/06/2026 06 AM PDT 2.65 46 0 Normal
05/06/2026 07 AM PDT 2.64 46 - Normal
05/06/2026 08 AM PDT 2.65 46 + Normal
05/06/2026 09 AM PDT 2.64 46 - Normal
05/06/2026 10 AM PDT 2.65 46 + Normal
05/06/2026 11 AM PDT 2.64 46 - Normal
05/06/2026 12 PM PDT 2.64 46 0 Normal
05/06/2026 01 PM PDT 2.64 46 0 Normal
05/06/2026 02 PM PDT 2.64 46 0 Normal
05/06/2026 03 PM PDT 2.63 45 - Normal
05/06/2026 04 PM PDT 2.64 46 + Normal
05/06/2026 05 PM PDT 2.64 46 0 Normal
05/06/2026 06 PM PDT 2.65 46 + Normal
05/06/2026 07 PM PDT 2.67 48 + Normal
05/06/2026 08 PM PDT 2.69 50 + Normal
05/06/2026 09 PM PDT 2.71 51 + Normal
05/06/2026 10 PM PDT 2.71 51 0 Normal
05/06/2026 11 PM PDT 2.72 52 + Normal
05/07/2026 12 AM PDT 2.72 52 0 Normal
05/07/2026 01 AM PDT 2.72 52 0 Normal
05/07/2026 02 AM PDT 2.72 52 0 Normal
05/07/2026 03 AM PDT 2.71 51 - Normal
05/07/2026 04 AM PDT 2.72 52 + Normal
05/07/2026 05 AM PDT 2.71 51 - Normal
05/07/2026 06 AM PDT 2.71 51 0 Normal
05/07/2026 07 AM PDT 2.71 51 0 Normal
#
# FORECAST
#
# Date & Time (Local) Stage (Feet) Flow (cfs) Trend Forecast Status
# ---------------------------------------------------------------------------------
05/07/2026 08 AM PDT 2.70 50 Normal
05/07/2026 09 AM PDT 2.69 50 - Normal
05/07/2026 10 AM PDT 2.69 50 0 Normal
05/07/2026 11 AM PDT 2.68 49 - Normal
05/07/2026 12 PM PDT 2.68 49 0 Normal
05/07/2026 01 PM PDT 2.68 49 0 Normal
05/07/2026 02 PM PDT 2.68 49 0 Normal
05/07/2026 03 PM PDT 2.68 49 0 Normal
05/07/2026 04 PM PDT 2.68 49 0 Normal
05/07/2026 05 PM PDT 2.69 50 + Normal
05/07/2026 06 PM PDT 2.70 50 + Normal
05/07/2026 07 PM PDT 2.71 51 + Normal
05/07/2026 08 PM PDT 2.73 53 + Normal
05/07/2026 09 PM PDT 2.76 56 + Normal
05/07/2026 10 PM PDT 2.80 59 + Normal
05/07/2026 11 PM PDT 2.83 62 + Normal
05/08/2026 12 AM PDT 2.84 63 + Normal
05/08/2026 01 AM PDT 2.84 63 0 Normal
05/08/2026 02 AM PDT 2.83 62 - Normal
05/08/2026 03 AM PDT 2.82 61 - Normal
05/08/2026 04 AM PDT 2.81 60 - Normal
05/08/2026 05 AM PDT 2.79 58 - Normal
05/08/2026 06 AM PDT 2.79 58 0 Normal
05/08/2026 07 AM PDT 2.78 58 - Normal
05/08/2026 08 AM PDT 2.77 57 - Normal
05/08/2026 09 AM PDT 2.77 57 0 Normal
05/08/2026 10 AM PDT 2.76 56 - Normal
05/08/2026 11 AM PDT 2.75 55 - Normal
05/08/2026 12 PM PDT 2.75 55 0 Normal
05/08/2026 01 PM PDT 2.75 55 0 Normal
05/08/2026 02 PM PDT 2.75 55 0 Normal
05/08/2026 03 PM PDT 2.75 55 0 Normal
05/08/2026 04 PM PDT 2.75 55 0 Normal
05/08/2026 05 PM PDT 2.75 55 0 Normal
05/08/2026 06 PM PDT 2.75 55 0 Normal
05/08/2026 07 PM PDT 2.76 56 + Normal
05/08/2026 08 PM PDT 2.77 57 + Normal
05/08/2026 09 PM PDT 2.79 58 + Normal
05/08/2026 10 PM PDT 2.81 60 + Normal
05/08/2026 11 PM PDT 2.84 63 + Normal
05/09/2026 12 AM PDT 2.86 65 + Normal
05/09/2026 01 AM PDT 2.86 65 0 Normal
05/09/2026 02 AM PDT 2.86 65 0 Normal
05/09/2026 03 AM PDT 2.85 64 - Normal
05/09/2026 04 AM PDT 2.85 64 0 Normal
05/09/2026 05 AM PDT 2.84 63 - Normal
05/09/2026 06 AM PDT 2.83 62 - Normal
05/09/2026 07 AM PDT 2.83 62 0 Normal
05/09/2026 08 AM PDT 2.82 61 - Normal
05/09/2026 09 AM PDT 2.81 60 - Normal
05/09/2026 10 AM PDT 2.81 60 0 Normal
05/09/2026 11 AM PDT 2.80 59 - Normal
05/09/2026 12 PM PDT 2.80 59 0 Normal
05/09/2026 01 PM PDT 2.79 58 - Normal
05/09/2026 02 PM PDT 2.79 58 0 Normal
05/09/2026 03 PM PDT 2.79 58 0 Normal
05/09/2026 04 PM PDT 2.79 58 0 Normal
05/09/2026 05 PM PDT 2.79 58 0 Normal
05/09/2026 06 PM PDT 2.79 58 0 Normal
05/09/2026 07 PM PDT 2.79 58 0 Normal
05/09/2026 08 PM PDT 2.80 59 + Normal
05/09/2026 09 PM PDT 2.82 61 + Normal
05/09/2026 10 PM PDT 2.85 64 + Normal
05/09/2026 11 PM PDT 2.87 66 + Normal
05/10/2026 12 AM PDT 2.89 68 + Normal
05/10/2026 01 AM PDT 2.89 68 0 Normal
05/10/2026 02 AM PDT 2.89 68 0 Normal
05/10/2026 03 AM PDT 2.88 67 - Normal
05/10/2026 04 AM PDT 2.88 67 0 Normal
05/10/2026 05 AM PDT 2.87 66 - Normal
05/10/2026 06 AM PDT 2.86 65 - Normal
05/10/2026 07 AM PDT 2.86 65 0 Normal
05/10/2026 08 AM PDT 2.85 64 - Normal
05/10/2026 09 AM PDT 2.85 64 0 Normal
05/10/2026 10 AM PDT 2.84 63 - Normal
05/10/2026 11 AM PDT 2.84 63 0 Normal
05/10/2026 12 PM PDT 2.83 62 - Normal
05/10/2026 01 PM PDT 2.83 62 0 Normal
05/10/2026 02 PM PDT 2.83 62 0 Normal
05/10/2026 03 PM PDT 2.83 62 0 Normal
05/10/2026 04 PM PDT 2.83 62 0 Normal
05/10/2026 05 PM PDT 2.83 62 0 Normal
05/10/2026 06 PM PDT 2.83 62 0 Normal
05/10/2026 07 PM PDT 2.83 62 0 Normal
05/10/2026 08 PM PDT 2.84 63 + Normal
05/10/2026 09 PM PDT 2.86 65 + Normal
05/10/2026 10 PM PDT 2.89 68 + Normal
05/10/2026 11 PM PDT 2.91 70 + Normal
05/11/2026 12 AM PDT 2.93 72 + Normal
05/11/2026 01 AM PDT 2.94 74 + Normal
05/11/2026 02 AM PDT 2.94 74 0 Normal
05/11/2026 03 AM PDT 2.93 72 - Normal
05/11/2026 04 AM PDT 2.92 71 - Normal
05/11/2026 05 AM PDT 2.92 71 0 Normal
05/11/2026 06 AM PDT 2.91 70 - Normal
05/11/2026 07 AM PDT 2.91 70 0 Normal
05/11/2026 08 AM PDT 2.90 69 - Normal
05/11/2026 09 AM PDT 2.90 69 0 Normal
05/11/2026 10 AM PDT 2.89 68 - Normal
05/11/2026 11 AM PDT 2.89 68 0 Normal
05/11/2026 12 PM PDT 2.88 67 - Normal
05/11/2026 01 PM PDT 2.88 67 0 Normal
05/11/2026 02 PM PDT 2.87 66 - Normal
05/11/2026 03 PM PDT 2.87 66 0 Normal
05/11/2026 04 PM PDT 2.87 66 0 Normal
05/11/2026 05 PM PDT 2.87 66 0 Normal
05/11/2026 06 PM PDT 2.87 66 0 Normal
05/11/2026 07 PM PDT 2.87 66 0 Normal
05/11/2026 08 PM PDT 2.88 67 + Normal
05/11/2026 09 PM PDT 2.90 69 + Normal
05/11/2026 10 PM PDT 2.93 72 + Normal
05/11/2026 11 PM PDT 2.95 75 + Normal
05/12/2026 12 AM PDT 2.97 77 + Normal
05/12/2026 01 AM PDT 2.98 78 + Normal
05/12/2026 02 AM PDT 2.97 77 - Normal
05/12/2026 03 AM PDT 2.97 77 0 Normal
05/12/2026 04 AM PDT 2.96 76 - Normal
05/12/2026 05 AM PDT 2.95 75 - Normal
#
# NOTE 1: Stages are rounded to the nearest hundredth (.01) of a foot.
# NOTE 2: Flows are rounded to the nearest (1) cfs.
# NOTE 3: Trends are determined using hourly change in unrounded stage and flow.
# NOTE 4: Maximum Values are determined using unrounded stage and flow.
|